Location: Gorze? G�rny
(49.8500°N, 19.5000°E)
Time: 03:01:30
(UTC+00:00)

NOSS 3-3 (A) - Pass Details

Date: 13 May 2021
Orbit: 810 x 1402 km, 63.4° (Epoch: 06 June)

Event Time Altitude Azimuth Distance (km) Brightness Sun altitude
Rises 19:53:22 0° 232° (SW) 3,421 6.9 -12.5°
Reaches altitude 10° 19:55:43 10° 235° (SW) 2,538 6.2 -12.7°
Maximum altitude 20:01:35 67° 318° (NW) 1,043 4.4 -13.3°
Drops below altitude 10° 20:08:22 10° 41° (NE) 2,920 6.6 -14.0°
Sets 20:11:15 0° 45° (NE) 3,974 7.3 -14.2°
